Location: Dal�� Lhota
(48.7500°N, 14.0167°E)
Time: 09:24:34
(UTC+00:00)

Explorer 7 - Pass Details

Date: 05 August 2021
Orbit: 484 x 676 km, 50.3° (Epoch: 21 September)

Event Time Altitude Azimuth Distance (km) Brightness Sun altitude
Rises 05:33:03 0° 275° (W) 2,577 9.6 16.4°
Reaches altitude 10° 05:35:12 10° 278° (W) 1,712 8.8 16.7°
Maximum altitude 05:39:03 69° 2° (N) 559 7.2 17.4°
Drops below altitude 10° 05:43:08 10° 87° (E) 1,805 12.1 18.0°
Sets 05:45:27 0° 90° (E) 2,732 12.1 18.4°
